Time,TemperatureF,DewpointF,PressureIn,WindDirection,WindDirectionDegrees,WindSpeedMPH,WindSpeedGustMPH,Humidity,HourlyPrecipIn,Conditions,Clouds,dailyrainin,SoftwareType,DateUTC
2014-03-23 00:02:00,35.0,22.0,-100.00,East,82,3.0,4.0,58,-99.99,,,-99.99,,2014-03-23 07:02:00,
2014-03-23 00:11:00,35.0,22.0,-100.00,East,82,3.0,4.0,58,-99.99,,,-99.99,,2014-03-23 07:11:00,
2014-03-23 00:22:00,33.0,20.0,-100.00,North,-999,0.0,0.0,59,-99.99,,,-99.99,,2014-03-23 07:22:00,
2014-03-23 00:32:00,33.0,20.0,-100.00,North,-999,0.0,0.0,59,-99.99,,,-99.99,,2014-03-23 07:32:00,
2014-03-23 01:11:00,31.0,18.0,-100.00,ENE,76,5.0,6.0,57,-99.99,,,-99.99,,2014-03-23 08:11:00,
2014-03-23 01:21:00,30.0,17.0,-100.00,North,-999,0.0,1.0,59,-99.99,,,-99.99,,2014-03-23 08:21:00,
2014-03-23 01:32:00,30.0,17.0,-100.00,North,-999,0.0,1.0,59,-99.99,,,-99.99,,2014-03-23 08:32:00,
2014-03-23 01:42:00,30.0,17.0,-100.00,North,-999,0.0,1.0,59,-99.99,,,-99.99,,2014-03-23 08:42:00,
2014-03-23 01:51:00,29.0,16.0,-100.00,East,88,3.0,3.0,59,-99.99,,,-99.99,,2014-03-23 08:51:00,
2014-03-23 02:02:00,29.0,16.0,-100.00,East,88,3.0,3.0,59,-99.99,,,-99.99,,2014-03-23 09:02:00,
2014-03-23 02:22:00,28.0,15.0,-100.00,ENE,62,2.0,4.0,58,-99.99,,,-99.99,,2014-03-23 09:22:00,
2014-03-23 02:33:00,28.0,15.0,-100.00,ENE,62,2.0,4.0,58,-99.99,,,-99.99,,2014-03-23 09:33:00,
2014-03-23 03:12:00,27.0,15.0,-100.00,North,-999,0.0,1.0,61,-99.99,,,-99.99,,2014-03-23 10:12:00,
2014-03-23 03:23:00,26.0,15.0,-100.00,ENE,71,2.0,3.0,63,-99.99,,,-99.99,,2014-03-23 10:23:00,
2014-03-23 03:42:00,25.0,15.0,-100.00,ENE,75,1.0,3.0,64,-99.99,,,-99.99,,2014-03-23 10:42:00,
2014-03-23 03:54:00,25.0,15.0,-100.00,ENE,75,1.0,3.0,64,-99.99,,,-99.99,,2014-03-23 10:54:00,
2014-03-23 04:02:00,25.0,15.0,-100.00,ENE,75,1.0,3.0,64,-99.99,,,-99.99,,2014-03-23 11:02:00,
2014-03-23 04:22:00,26.0,15.0,-100.00,North,-999,0.0,0.0,63,-99.99,,,-99.99,,2014-03-23 11:22:00,
2014-03-23 04:52:00,24.0,14.0,-100.00,North,-999,0.0,1.0,66,-99.99,,,-99.99,,2014-03-23 11:52:00,
2014-03-23 05:02:00,24.0,14.0,-100.00,North,-999,0.0,1.0,66,-99.99,,,-99.99,,2014-03-23 12:02:00,
2014-03-23 05:41:00,23.0,14.0,-100.00,North,-999,0.0,0.0,68,-99.99,,,-99.99,,2014-03-23 12:41:00,
2014-03-23 05:53:00,23.0,14.0,-100.00,North,-999,0.0,0.0,68,-99.99,,,-99.99,,2014-03-23 12:53:00,
2014-03-23 06:12:00,23.0,15.0,-100.00,East,83,1.0,2.0,70,-99.99,,,-99.99,,2014-03-23 13:12:00,
2014-03-23 06:22:00,23.0,15.0,-100.00,East,83,1.0,2.0,70,-99.99,,,-99.99,,2014-03-23 13:22:00,
2014-03-23 06:42:00,23.0,14.0,-100.00,East,79,1.0,2.0,69,-99.99,,,-99.99,,2014-03-23 13:42:00,
2014-03-23 06:52:00,23.0,15.0,-100.00,ENE,68,2.0,3.0,70,-99.99,,,-99.99,,2014-03-23 13:52:00,
2014-03-23 08:22:00,23.0,15.0,-100.00,North,-999,0.0,0.0,72,-99.99,,,-99.99,,2014-03-23 15:22:00,
2014-03-23 08:33:00,23.0,15.0,-100.00,North,-999,0.0,0.0,72,-99.99,,,-99.99,,2014-03-23 15:33:00,
2014-03-23 08:43:00,23.0,15.0,-100.00,North,-999,0.0,0.0,72,-99.99,,,-99.99,,2014-03-23 15:43:00,
2014-03-23 08:53:00,30.0,21.0,-100.00,North,-999,0.0,0.0,68,-99.99,,,-99.99,,2014-03-23 15:53:00,
2014-03-23 09:03:00,30.0,21.0,-100.00,North,-999,0.0,0.0,68,-99.99,,,-99.99,,2014-03-23 16:03:00,
2014-03-23 09:23:00,35.0,23.0,-100.00,North,-999,0.0,0.0,62,-99.99,,,-99.99,,2014-03-23 16:23:00,
2014-03-23 09:33:00,35.0,23.0,-100.00,North,-999,0.0,0.0,62,-99.99,,,-99.99,,2014-03-23 16:33:00,
2014-03-23 10:43:00,46.0,26.0,-100.00,WNW,282,3.0,4.0,45,-99.99,,,-99.99,,2014-03-23 17:43:00,
2014-03-23 19:42:00,57.0,15.0,-100.00,ENE,66,3.0,4.0,19,-99.99,,,-99.99,,2014-03-24 02:42:00,
2014-03-23 20:11:00,51.0,17.0,-100.00,NNE,20,1.0,2.0,26,-99.99,,,-99.99,,2014-03-24 03:11:00,
2014-03-23 20:43:00,48.0,19.0,-100.00,East,86,5.0,6.0,31,-99.99,,,-99.99,,2014-03-24 03:43:00,
2014-03-23 20:53:00,46.0,19.0,-100.00,ENE,69,4.0,5.0,33,-99.99,,,-99.99,,2014-03-24 03:53:00,
2014-03-23 21:04:00,46.0,19.0,-100.00,ENE,69,4.0,5.0,33,-99.99,,,-99.99,,2014-03-24 04:04:00,
2014-03-23 21:12:00,46.0,19.0,-100.00,ENE,69,4.0,5.0,33,-99.99,,,-99.99,,2014-03-24 04:12:00,
2014-03-23 21:23:00,45.0,18.0,-100.00,ENE,78,5.0,6.0,33,-99.99,,,-99.99,,2014-03-24 04:23:00,
2014-03-23 21:42:00,42.0,16.0,-100.00,ENE,65,4.0,6.0,35,-99.99,,,-99.99,,2014-03-24 04:42:00,
2014-03-23 22:12:00,41.0,16.0,-100.00,ENE,72,2.0,3.0,36,-99.99,,,-99.99,,2014-03-24 05:12:00,
2014-03-23 22:43:00,38.0,15.0,-100.00,ENE,75,2.0,3.0,38,-99.99,,,-99.99,,2014-03-24 05:43:00,
2014-03-23 22:52:00,36.0,13.0,-100.00,ENE,69,2.0,3.0,38,-99.99,,,-99.99,,2014-03-24 05:52:00,
2014-03-23 23:02:00,36.0,13.0,-100.00,ENE,69,2.0,3.0,38,-99.99,,,-99.99,,2014-03-24 06:02:00,
2014-03-23 23:21:00,37.0,12.0,-100.00,East,80,2.0,3.0,35,-99.99,,,-99.99,,2014-03-24 06:21:00,
2014-03-23 23:41:00,36.0,11.0,-100.00,ENE,73,2.0,3.0,35,-99.99,,,-99.99,,2014-03-24 06:41:00,